Regional Weather Roundup
Issued by NWS

Home | Current Version | Previous Version | Graphics & Text | Print | Product List | Glossary On
Versions: 1 2 3 4 5 6 7 8 9 10 11 12 13 14 15 16 17 18 19 20 21 22 23 24 25 26 27 28 29 30 31 32 33 34 35 36 37 38 39 40 41 42 43 44 45 46 47 48 49 50
552
ASUS43 KFSD 301202
RWRSD

WEATHER ROUNDUP FOR SOUTH DAKOTA
NATIONAL WEATHER SERVICE SIOUX FALLS SD
700 AM CDT TUE AUG 30 2016

NOTE: "FAIR" INDICATES FEW OR NO CLOUDS BELOW 12,000 FEET WITH NO
SIGNIFICANT WEATHER AND/OR OBSTRUCTIONS TO VISIBILITY.


SDZ001>005-009-010-012>017-301300-
NORTHWEST AND NORTH CENTRAL SOUTH DAKOTA

CITY           SKY/WX    TMP DP  RH WIND       PRES   REMARKS
BUFFALO          N/A     61  55  81 E6        30.19S
FAITH            N/A     59  55  87 MISG      30.24S
MOBRIDGE       CLEAR     58  49  72 SE7       30.22S
$$

SDZ012>016-024>037-041>051-057-063-072>074-301300-
SOUTHWEST AND SOUTH CENTRAL SOUTH DAKOTA

CITY           SKY/WX    TMP DP  RH WIND       PRES   REMARKS
RAPID CTY ARPT CLEAR     60  59  96 E6        30.25S
PIERRE         PTCLDY    63  60  90 E9        30.18R
CUSTER         CLEAR     54  52  93 NW3       30.37S FOG
ELLSWORTH AFB  PTCLDY    62  62 100 E5        30.25
PHILIP         CLEAR     61  60  97 NE5       30.21R
PINE RIDGE     PTCLDY    53  53 100 CALM      30.25R
WINNER         FAIR      67  63  87 S6        30.19R
$$

SDZ004>011-016>023-039-040-301300-
NORTHEAST SOUTH DAKOTA

CITY           SKY/WX    TMP DP  RH WIND       PRES   REMARKS
ABERDEEN       CLEAR     53  50  89 N6        30.24S
WATERTOWN      FAIR      60  57  89 N5        30.23R
BROOKINGS      CLOUDY    66  64  94 SE6       30.22
SISSETON         N/A     56  53  90 NW5       30.23R
$$

SDZ017-020-022-023-036>040-048>070-301300-
SOUTHEAST SOUTH DAKOTA

CITY           SKY/WX    TMP DP  RH WIND       PRES   REMARKS
SIOUX FALLS    MOCLDY    69  66  90 NE5       30.20R
HURON          PTCLDY    67  64  90 E7        30.19R
CHAMBERLAIN    MOCLDY    67  67  99 E6        30.19R
MITCHELL       PTCLDY    66  65  96 SE5       30.19S
YANKTON        FAIR      66  63  88 NE5       30.19S
$$

ABBREVIATIONS USED IN REMARKS
   TC - TEMPERATURE IN CELSIUS
  WCI - WIND CHILL INDEX
   HX - HEAT INDEX
  VSB - VISIBILITY





USA.gov is the U.S. government's official web portal to all federal, state and local government web resources and services.